Location: Arlington
(40.6323°N, 74.1651°W)
Time: 22:36:05
(UTC+00:00)

ISS - Pass Details

Date: 22 November 2019
Orbit: 411 x 421 km, 51.6° (Epoch: 12 December)

Event Time Altitude Azimuth Distance (km) Brightness Sun altitude
Rises 23:36:18 0° 244° (WSW) 2,346 1.3 -22.9°
Reaches altitude 10° 23:38:25 10° 249° (WSW) 1,488 0.1 -23.3°
Enters shadow 23:40:56 41° 281° (W) 614 -2.5 -23.8°
